Terug naar catalogus

USA 40 R/B DEB

LostHEO
NORAD 23379·DEBRIS·🇺🇸 United States

Gelanceerd Aug 8, 1989 vanaf Cape Canaveral Space Force Station

Loading…

Volgende Passages (komende 24 uur)

TLE

VerouderdSource: Space-Track

Epoch: Jun 18, 2026, 09:34 UTC

1 23379U 89061BB  26169.39893908  .00007296  00000-0  53476-2 0  9992
2 23379  56.8720 280.7502 2979824 244.9483  81.4526  8.92867857232545

Volg USA 40 R/B DEB in realtime met AllMySat

Download on the App Store